AIC905 VAOZ-VABB

Flight info

Callsign AIC905
Flight time 0h 21m
Altitude 12000
Route KAMOL DCT 190520N0725938E
Aircraft A21N/M-SDE2E3FGHIRWXY/LB1

Departure

Time 2026-05-04 15:22
Airport Nashik International Airport (VAOZ)

Arrival

Time 2026-05-04 15:43
Airport Chhatrapati Shivaji Maharaj International Airport (VABB)
Time Latitude Longitude Altitude Speed Heading
2026-05-04 14:43 20.11486 73.89994 2003 ft 0 kts 175°
2026-05-04 15:13 20.11498 73.89993 2001 ft 2 kts 166°
2026-05-04 15:13 20.11513 73.89988 1999 ft 2 kts 149°
2026-05-04 15:13 20.11525 73.89979 2001 ft 2 kts 131°
2026-05-04 15:14 20.11534 73.89966 2000 ft 2 kts 113°
2026-05-04 15:14 20.11537 73.89961 2000 ft 0 kts 107°
2026-05-04 15:16 20.11540 73.89991 2000 ft 9 kts 69°
2026-05-04 15:17 20.11605 73.90022 2001 ft 12 kts 344°
2026-05-04 15:17 20.11779 73.90007 2001 ft 13 kts 353°
2026-05-04 15:17 20.11843 73.90064 2000 ft 15 kts 84°
2026-05-04 15:18 20.11855 73.90187 1998 ft 19 kts 77°
2026-05-04 15:18 20.11868 73.90349 1995 ft 26 kts 86°
2026-05-04 15:18 20.11892 73.90570 1991 ft 34 kts 83°
2026-05-04 15:19 20.11941 73.91168 1985 ft 46 kts 81°
2026-05-04 15:19 20.11985 73.91512 1975 ft 49 kts 84°
2026-05-04 15:19 20.12051 73.92250 1958 ft 51 kts 83°
2026-05-04 15:20 20.12088 73.92614 1953 ft 40 kts 84°
2026-05-04 15:20 20.12108 73.92707 1952 ft 1 kts 62°
2026-05-04 15:20 20.12103 73.92723 1952 ft 3 kts 114°
2026-05-04 15:20 20.12090 73.92722 1952 ft 1 kts 192°
2026-05-04 15:21 20.12090 73.92718 1952 ft 0 kts 222°
2026-05-04 15:21 20.12090 73.92713 1952 ft 3 kts 246°
2026-05-04 15:21 20.12074 73.92519 1955 ft 64 kts 265°
2026-05-04 15:22 20.12008 73.91770 1967 ft 137 kts 264°
2026-05-04 15:22 20.11900 73.90594 2255 ft 173 kts 264°
2026-05-04 15:22 20.11604 73.87741 3402 ft 210 kts 263°
2026-05-04 15:23 20.11249 73.86193 3876 ft 229 kts 241°
2026-05-04 15:23 20.10080 73.84909 4217 ft 255 kts 214°
2026-05-04 15:23 20.08396 73.84092 4764 ft 273 kts 203°
2026-05-04 15:23 20.06597 73.83432 5601 ft 277 kts 202°
2026-05-04 15:24 20.02893 73.82067 7192 ft 285 kts 204°
2026-05-04 15:24 19.99108 73.80573 8803 ft 293 kts 204°
2026-05-04 15:25 19.97200 73.79799 9589 ft 298 kts 203°
2026-05-04 15:25 19.95235 73.79003 10260 ft 307 kts 202°
2026-05-04 15:25 19.93172 73.78176 10522 ft 330 kts 202°
2026-05-04 15:26 19.88670 73.76409 11462 ft 352 kts 202°
2026-05-04 15:26 19.86348 73.75508 11810 ft 354 kts 202°
2026-05-04 15:26 19.81749 73.73730 11876 ft 353 kts 202°
2026-05-04 15:27 19.79430 73.72830 11876 ft 353 kts 202°
2026-05-04 15:27 19.74815 73.71035 11879 ft 353 kts 202°
2026-05-04 15:28 19.70204 73.69238 11876 ft 353 kts 202°
2026-05-04 15:28 19.67884 73.68335 11874 ft 353 kts 202°
2026-05-04 15:28 19.63461 73.66194 11344 ft 350 kts 218°
2026-05-04 15:29 19.61693 73.64461 10817 ft 346 kts 230°
2026-05-04 15:30 19.55713 73.56835 9447 ft 310 kts 229°
2026-05-04 15:30 19.51636 73.51926 8187 ft 290 kts 229°
2026-05-04 15:31 19.49026 73.48767 7089 ft 283 kts 230°
2026-05-04 15:31 19.47745 73.47205 6554 ft 279 kts 230°
2026-05-04 15:32 19.44015 73.42617 4826 ft 273 kts 230°
2026-05-04 15:32 19.41585 73.39586 3751 ft 266 kts 229°
2026-05-04 15:33 19.39067 73.36813 3108 ft 262 kts 221°
2026-05-04 15:34 19.35076 73.32904 2940 ft 259 kts 225°
2026-05-04 15:34 19.33797 73.31583 2941 ft 260 kts 225°
2026-05-04 15:34 19.31219 73.28916 2935 ft 258 kts 225°
2026-05-04 15:35 19.28631 73.26272 2941 ft 259 kts 225°
2026-05-04 15:35 19.27346 73.24965 2938 ft 259 kts 225°
2026-05-04 15:35 19.26037 73.23640 2939 ft 259 kts 225°
2026-05-04 15:36 19.23432 73.21010 2932 ft 258 kts 225°
2026-05-04 15:36 19.22126 73.19692 2931 ft 256 kts 225°
2026-05-04 15:36 19.20882 73.18440 2926 ft 240 kts 225°
2026-05-04 15:37 19.19726 73.17280 2924 ft 224 kts 225°
2026-05-04 15:37 19.18568 73.16117 2922 ft 228 kts 225°
2026-05-04 15:37 19.17425 73.14966 2918 ft 226 kts 225°
2026-05-04 15:37 19.16293 73.13830 2921 ft 225 kts 225°
2026-05-04 15:38 19.15148 73.12679 2914 ft 225 kts 225°
2026-05-04 15:38 19.14019 73.11545 2914 ft 226 kts 225°
2026-05-04 15:38 19.12875 73.10396 2911 ft 226 kts 225°
2026-05-04 15:38 19.11740 73.09258 2910 ft 228 kts 225°
2026-05-04 15:39 19.10592 73.08104 2904 ft 227 kts 225°
2026-05-04 15:39 19.09653 73.06764 2908 ft 228 kts 248°
2026-05-04 15:39 19.09159 73.03594 2906 ft 209 kts 267°
2026-05-04 15:40 19.09121 73.02117 2697 ft 206 kts 267°
2026-05-04 15:40 19.09086 73.00576 2299 ft 200 kts 267°
2026-05-04 15:40 19.09063 72.99146 2046 ft 188 kts 266°
2026-05-04 15:40 19.09041 72.97806 1823 ft 183 kts 266°
2026-05-04 15:41 19.09023 72.96485 1595 ft 174 kts 266°
2026-05-04 15:41 19.09004 72.95258 1373 ft 159 kts 265°
2026-05-04 15:41 19.08987 72.94147 1186 ft 141 kts 265°
2026-05-04 15:41 19.08970 72.93149 1020 ft 138 kts 265°
2026-05-04 15:42 19.08955 72.92151 852 ft 132 kts 265°
2026-05-04 15:42 19.08951 72.91163 717 ft 139 kts 266°
2026-05-04 15:42 19.08949 72.90160 542 ft 131 kts 268°
2026-05-04 15:42 19.08928 72.89218 369 ft 134 kts 265°
2026-05-04 15:43 19.08907 72.88211 185 ft 134 kts 266°
2026-05-04 15:43 19.08880 72.87255 55 ft 132 kts 266°
2026-05-04 15:43 19.08858 72.86359 49 ft 101 kts 269°
2026-05-04 15:43 19.08855 72.85803 49 ft 49 kts 275°
2026-05-04 15:44 19.08934 72.85527 49 ft 18 kts 296°
2026-05-04 15:44 19.09014 72.85476 49 ft 8 kts
2026-05-04 15:44 19.09026 72.85494 49 ft 3 kts 69°
2026-05-04 15:44 19.09026 72.85528 49 ft 6 kts 92°
2026-05-04 15:45 19.09025 72.85594 49 ft 12 kts 87°
2026-05-04 15:45 19.09029 72.85698 49 ft 16 kts 88°
2026-05-04 15:45 19.09032 72.85830 49 ft 20 kts 90°
2026-05-04 15:45 19.09031 72.85987 49 ft 23 kts 90°
2026-05-04 15:46 19.09034 72.86165 49 ft 25 kts 86°
2026-05-04 15:46 19.09036 72.86341 49 ft 16 kts 90°
2026-05-04 15:46 19.09036 72.86468 49 ft 19 kts 89°
2026-05-04 15:46 19.09038 72.86619 50 ft 22 kts 89°
2026-05-04 15:47 19.09042 72.86786 50 ft 24 kts 89°
2026-05-04 15:47 19.09044 72.86976 50 ft 27 kts 88°
2026-05-04 15:47 19.09048 72.87180 50 ft 25 kts 88°
2026-05-04 15:47 19.09086 72.87268 50 ft 12 kts 24°
2026-05-04 15:48 19.09176 72.87261 47 ft 14 kts 352°
2026-05-04 15:48 19.09261 72.87234 49 ft 10 kts 336°
2026-05-04 15:48 19.09320 72.87207 49 ft 0 kts 339°